Simultaneous Nadir Overpasses (SNOs) Predictions

Prediction of SNOs between METOP-B and TERRA Satellite Orbit:

Table of predicted SNOs for the next 14.0 days since TLE Epoch: 11/30/2013
Index Date (METOP-B) Time (METOP-B) Lat,Lon (METOP-B) SZA (METOP-B ) Date (TERRA) Time (TERRA) Lat,Lon (TERRA) SZA (TERRA ) Distance(km) Time Diff (sec)
1 12/02/2013 15:43:47 81.28, -9.43 106.16 12/02/2013 15:44:40 81.28, -9.41 106.19 0.44 53
2 12/02/2013 16:34:27 -81.29, 158.45 73.77 12/02/2013 16:34:06 -81.29, 158.48 73.78 0.68 21
3 12/05/2013 11:18:11 81.28, 56.93 106.50 12/05/2013 11:18:55 81.27, 56.99 106.52 1.04 44
4 12/05/2013 12:08:51 -81.29,-135.13 73.43 12/05/2013 12:08:21 -81.29,-135.09 73.44 0.80 30
5 12/08/2013 06:52:35 81.28, 123.63 106.82 12/08/2013 06:53:10 81.29, 123.67 106.85 0.95 35
6 12
